Retour au catalogue

FREGAT DEB

LostUNKNOWN
NORAD 45880·DEBRIS·🇷🇺 Russia

Lancé Jul 18, 2011 depuis Baikonur Cosmodrome

Loading…

Prochains Passages (prochaines 24 heures)

TLE

PériméSource: Space-Track

Époque: Jul 15, 2021, 20:47 UTC

1 45880U 11037CZ  21196.86655635  .00098537  00000-0  16030+0 0  9991
2 45880  51.4798  13.6423 2314814 212.7659 130.6070  9.90753464 36288

Suivez FREGAT DEB en temps réel avec AllMySat

Download on the App Store